[[{"header":{"parameterUnit":"m.s-1","parameterCategory":1,"la1":30.2991,"la2":30.254,"lo1":-89.0895,"lo2":-89.0444,"dy":0.0017,"dx":0.0017,"nx":28,"ny":28,"refTime":"2025-06-11T21:00:00:Z","depth":0,"parameterNumber":2,"parameterNumberName":"U-component_of_WINDS"},"data":[0,0,0,0,0,0,0,0,0,0,0,0,0,0,0,0,0,0,0,0,0,0,0,0,0,0,0,0,0,0,0,0,0,0,0,0,0,0,0,0,0,0,0,0,0,0,0,0,0,0,0,0,0,0,0,0,0,0,-0.0971,-0.0971,0,-0.1019,-0.1019,-0.102,-0.1069,-0.107,-0.1071,-0.1071,-0.112,-0.1121,-0.1121,0,0,0,0,0,0,0,0,0,0,0,0,0,-0.0923,-0.0923,-0.0971,-0.0971,-0.0972,-0.1019,-0.1019,-0.102,-0.1069,-0.107,-0.1071,-0.1072,-0.112,-0.1121,-0.1121,0,0,0,0,0,0,0,0,0,0,0,0,0,-0.0954,-0.0924,-0.0971,-0.1002,-0.1006,-0.1018,-0.1019,-0.102,-0.1069,-0.107,-0.1071,-0.1072,-0.112,-0.1121,-0.1121,-0.1107,0,0,-0.1124,-0.1125,0,0,0,0,0,0,0,0,-0.0953,-0.0956,-0.0997,-0.1,-0.1004,-0.1039,-0.102,-0.1049,-0.1069,-0.1045,-0.1071,-0.1073,-0.1092,-0.1096,-0.1102,-0.1109,-0.1111,-0.1125,-0.1125,-0.1126,-0.1126,0,0,0,0,0,0,0,-0.095,-0.0954,-0.099,-0.0998,-0.1002,-0.1014,-0.102,-0.1026,-0.1062,-0.1047,-0.1051,-0.1056,-0.1094,-0.1101,-0.1104,-0.1112,-0.1125,-0.1125,-0.1126,-0.1126,-0.1111,-0.111,0,0,0,0,0,0,-0.0943,-0.0952,-0.0988,-0.0991,-0.098,-0.1014,-0.1021,-0.1027,-0.1062,-0.1069,-0.1055,-0.1058,-0.1099,-0.1103,-0.1106,-0.1092,-0.1126,-0.1126,-0.1127,-0.1112,-0.1111,-0.111,0,0,0,0,0,0,-0.0942,-0.0946,-0.0986,-0.0973,-0.0979,-0.1014,-0.1021,-0.1027,-0.1034,-0.1068,-0.1075,-0.1055,-0.11,-0.1104,-0.1107,-0.1094,-0.1127,-0.1128,-0.1113,-0.1112,-0.111,-0.1064,0,0,0,0,0,0,-0.094,-0.0945,-0.094,-0.0972,-0.0979,-0.0986,-0.102,-0.1027,-0.1036,-0.104,-0.107,-0.1076,-0.1101,-0.1105,-0.1108,-0.1096,-0.1129,-0.1115,-0.1113,-0.1111,-0.1067,-0.1061,-0.1056,0,0,0,0,0,-0.0939,-0.0924,-0.0939,-0.0943,-0.0973,-0.0985,-0.0989,-0.1018,-0.1034,-0.103,-0.1052,-0.1075,-0.1095,-0.1105,-0.1108,-0.1097,-0.1116,-0.1113,-0.1111,-0.1069,-0.1062,-0.1056,0,0,0,0,0,0,-0.0889,-0.0929,-0.0946,-0.0942,-0.096,-0.0994,-0.0988,-0.101,-0.1023,-0.1027,-0.1062,-0.1069,-0.1067,-0.1082,-0.1092,-0.1086,-0.1109,-0.1107,-0.1076,-0.1069,-0.1064,-0.106,-0.1129,0,0,0,0,0,-0.0878,-0.0884,-0.0919,-0.0912,-0.092,-0.0952,-0.0959,-0.098,-0.1,-0.1007,-0.103,-0.1048,-0.1059,-0.1065,-0.1076,-0.1069,-0.1077,-0.1063,-0.1058,-0.1053,-0.1052,-0.105,-0.1045,-0.1103,-0.1103,-0.1103,0,0,-0.0854,-0.0877,-0.0879,-0.0902,-0.0919,-0.0925,-0.0958,-0.0963,-0.0968,-0.1008,-0.1012,-0.1029,-0.1052,-0.105,-0.105,-0.1062,-0.1037,-0.1051,-0.1047,-0.1047,-0.1047,-0.1042,-0.1037,-0.1101,-0.1101,-0.1102,0,0,-0.0815,-0.0832,-0.0829,-0.0845,-0.0869,-0.0891,-0.089,-0.0921,-0.0934,-0.0939,-0.0969,-0.0976,-0.0993,-0.1009,-0.1019,-0.0987,-0.1009,-0.0989,-0.0962,-0.096,-0.0955,-0.0951,-0.094,-0.0936,-0.0988,-0.0987,-0.0987,0,-0.0782,-0.0793,-0.0824,-0.0828,-0.0837,-0.0875,-0.0872,-0.0886,-0.0913,-0.0919,-0.0933,-0.0956,-0.0974,-0.0976,-0.0969,-0.0975,-0.0976,-0.0986,-0.0953,-0.095,-0.0947,-0.0937,-0.0932,-0.0985,-0.0985,-0.0985,-0.0986,0,-0.0752,-0.0759,-0.0753,-0.0779,-0.0788,-0.0788,-0.082,-0.0826,-0.0847,-0.0867,-0.0872,-0.0895,-0.0913,-0.0915,-0.0934,-0.092,-0.0928,-0.0947,-0.0971,-0.0938,-0.0929,-0.0926,-0.0981,-0.0982,-0.0983,-0.0984,0,0,-0.0682,-0.0726,-0.0723,-0.0736,-0.0766,-0.0772,-0.0775,-0.0792,-0.0797,-0.0814,-0.0817,-0.0832,-0.085,-0.0862,-0.0884,-0.0882,-0.0856,-0.0902,-0.0903,-0.0893,-0.0843,-0.0828,-0.0823,-0.0871,-0.0871,-0.087,-0.0841,0,-0.0648,-0.0654,-0.0683,-0.0681,-0.0688,-0.0724,-0.0726,-0.0745,-0.0765,-0.0774,-0.0796,-0.0806,-0.0829,-0.0836,-0.0836,-0.0859,-0.0847,-0.0862,-0.0875,-0.0875,-0.0868,-0.0819,-0.0803,-0.0774,-0.0838,-0.0837,-0.0837,0,-0.0609,-0.0625,-0.0623,-0.0655,-0.0659,-0.066,-0.0679,-0.0687,-0.071,-0.0724,-0.0738,-0.0763,-0.0768,-0.079,-0.0798,-0.0808,-0.0815,-0.0828,-0.0827,-0.0829,-0.0854,-0.082,-0.0766,-0.0762,-0.0832,-0.0832,-0.0833,0,-0.0558,-0.0579,-0.0582,-0.0591,-0.0628,-0.0628,-0.0643,-0.0667,-0.0676,-0.0693,-0.0699,-0.0716,-0.0725,-0.0738,-0.0767,-0.0781,-0.0772,-0.0797,-0.0784,-0.0784,-0.0781,-0.078,-0.0727,-0.0785,-0.0785,-0.0785,-0.0785,0,-0.0518,-0.0515,-0.056,-0.0561,-0.056,-0.0594,-0.0592,-0.061,-0.0632,-0.0638,-0.067,-0.0675,-0.0713,-0.0722,-0.0745,-0.0749,-0.0752,-0.0765,-0.0771,-0.0762,-0.076,-0.0767,-0.077,-0.0784,-0.0784,-0.0784,-0.0785,0,-0.0461,-0.049,-0.0495,-0.053,-0.0538,-0.0536,-0.0566,-0.0569,-0.0591,-0.0598,-0.0602,-0.0636,-0.0649,-0.068,-0.07,-0.0716,-0.0714,-0.0725,-0.0706,-0.071,-0.0696,-0.0697,-0.0645,-0.064,-0.0701,-0.07,-0.0699,0,-0.0433,-0.0432,-0.0467,-0.0473,-0.0487,-0.0497,-0.0507,-0.054,-0.0549,-0.0576,-0.0576,-0.0591,-0.0605,-0.0625,-0.0652,-0.0668,-0.068,-0.0661,-0.0683,-0.0674,-0.068,-0.068,-0.068,-0.0656,-0.0655,-0.0654,-0.0654,0,-0.038,-0.0395,-0.0408,-0.0426,-0.0436,-0.0452,-0.0469,-0.0473,-0.0511,-0.0519,-0.0533,-0.0544,-0.0566,-0.0581,-0.0602,-0.0618,-0.0642,-0.0647,-0.0645,-0.0636,-0.0625,-0.0631,-0.0693,-0.0648,-0.0648,-0.0649,-0.0649,-0.0649,-0.0338,-0.0339,-0.0364,-0.0377,-0.0394,-0.041,-0.0415,-0.0437,-0.0449,-0.047,-0.0489,-0.0501,-0.0525,-0.0556,-0.0571,-0.0581,-0.0593,-0.059,-0.0589,-0.0588,-0.0585,-0.0623,-0.0585,-0.0585,-0.0585,-0.0585,-0.0586,0,-0.0287,-0.0305,-0.0317,-0.0341,-0.0351,-0.0373,-0.0394,-0.0402,-0.0412,-0.0432,-0.0446,-0.0462,-0.0478,-0.0506,-0.0524,-0.0527,-0.0538,-0.053,-0.0531,-0.0534,-0.0572,-0.0572,-0.0521,-0.0521,-0.0521,-0.0521,-0.0521,-0.0521,-0.0262,-0.0266,-0.0284,-0.0297,-0.0315,-0.0327,-0.0337,-0.0352,-0.0369,-0.0385,-0.0398,-0.0417,-0.0441,-0.0461,-0.0477,-0.0485,-0.049,-0.0478,-0.049,-0.0525,-0.0531,-0.0537,-0.0537,-0.0479,-0.0479,-0.0451,-0.0451,-0.0451]},{"header":{"parameterUnit":"m.s-1","parameterCategory":1,"la1":30.2991,"la2":30.254,"lo1":-89.0895,"lo2":-89.0444,"dy":0.0017,"dx":0.0017,"nx":28,"ny":28,"refTime":"2025-06-11T21:00:00:Z","depth":0,"parameterNumber":3,"parameterNumberName":"V-component_of_WINDS"},"data":[0,0,0,0,0,0,0,0,0,0,0,0,0,0,0,0,0,0,0,0,0,0,0,0,0,0,0,0,0,0,0,0,0,0,0,0,0,0,0,0,0,0,0,0,0,0,0,0,0,0,0,0,0,0,0,0,0,0,3.5729,3.5729,0,3.5655,3.5654,3.5653,3.5557,3.5555,3.5554,3.5552,3.5477,3.5477,3.5476,0,0,0,0,0,0,0,0,0,0,0,0,0,3.5788,3.5787,3.5729,3.5729,3.5728,3.5655,3.5654,3.5653,3.5557,3.5555,3.5553,3.5551,3.5477,3.5477,3.5476,0,0,0,0,0,0,0,0,0,0,0,0,0,3.5743,3.5787,3.573,3.5671,3.5665,3.5655,3.5654,3.5652,3.5557,3.5555,3.5553,3.5551,3.5478,3.5477,3.5476,3.5518,0,0,3.5473,3.5473,0,0,0,0,0,0,0,0,3.5745,3.5741,3.5681,3.5675,3.5668,3.5613,3.5647,3.5607,3.5558,3.5598,3.5552,3.5549,3.5524,3.5519,3.5511,3.5514,3.5511,3.5473,3.5473,3.5472,3.5472,0,0,0,0,0,0,0,3.5749,3.5743,3.57,3.568,3.5672,3.5648,3.5639,3.5639,3.5575,3.5595,3.5588,3.558,3.552,3.5512,3.5508,3.551,3.5473,3.5473,3.5472,3.5472,3.5539,3.5542,0,0,0,0,0,0,3.576,3.5747,3.5702,3.5698,3.5702,3.5649,3.5639,3.5633,3.5575,3.5564,3.5582,3.5576,3.5514,3.5509,3.5505,3.5547,3.5473,3.5472,3.5471,3.5537,3.554,3.5542,0,0,0,0,0,0,3.5762,3.5757,3.5705,3.572,3.5711,3.565,3.5644,3.5633,3.5624,3.5565,3.5554,3.5585,3.5512,3.5506,3.5514,3.5543,3.5471,3.5471,3.5534,3.5538,3.5541,3.5634,0,0,0,0,0,0,3.5764,3.5759,3.5775,3.5721,3.5711,3.5717,3.5646,3.5633,3.5622,3.5613,3.5565,3.5555,3.551,3.5516,3.5513,3.5541,3.547,3.5531,3.5536,3.554,3.5628,3.564,3.5651,0,0,0,0,0,3.5767,3.5805,3.5776,3.5771,3.573,3.5719,3.5713,3.566,3.5625,3.564,3.5602,3.5556,3.5541,3.5518,3.5514,3.5542,3.5529,3.5535,3.554,3.5623,3.5638,3.5651,0,0,0,0,0,0,3.5865,3.5797,3.5764,3.5787,3.5759,3.5702,3.572,3.5678,3.566,3.5653,3.5588,3.5578,3.5593,3.5568,3.5544,3.5577,3.5528,3.5533,3.5593,3.5606,3.5617,3.5623,3.5469,0,0,0,0,0,3.5889,3.5886,3.5827,3.5852,3.584,3.5782,3.5775,3.5737,3.5706,3.5694,3.5656,3.5628,3.5616,3.561,3.5596,3.5624,3.561,3.5641,3.5652,3.5662,3.5667,3.5676,3.5688,3.5559,3.5559,3.5559,0,0,3.594,3.5902,3.5904,3.5871,3.5845,3.5842,3.5773,3.5774,3.577,3.5694,3.5698,3.567,3.5633,3.565,3.5656,3.563,3.5699,3.5668,3.5676,3.5676,3.5682,3.5695,3.5706,3.5563,3.5562,3.5561,0,0,3.603,3.6002,3.6018,3.5992,3.5953,3.5914,3.5918,3.5867,3.5844,3.5847,3.5789,3.5783,3.5765,3.5741,3.5726,3.5802,3.5758,3.5799,3.5858,3.5868,3.5878,3.5887,3.5912,3.5922,3.5804,3.5804,3.5804,0,3.6097,3.6091,3.6032,3.6035,3.6021,3.5949,3.5964,3.5943,3.5901,3.5893,3.5864,3.5837,3.5808,3.5816,3.5834,3.5826,3.5827,3.5805,3.5881,3.589,3.5897,3.592,3.5929,3.5809,3.5809,3.5808,3.5808,0,3.6174,3.617,3.6188,3.6148,3.6136,3.6145,3.6087,3.6081,3.6043,3.6006,3.6008,3.597,3.5946,3.5945,3.5908,3.5947,3.5932,3.5893,3.5843,3.5915,3.5935,3.5944,3.5817,3.5815,3.5813,3.5812,0,0,3.6327,3.6251,3.6259,3.6238,3.6187,3.6183,3.6187,3.6162,3.6157,3.613,3.6131,3.6116,3.6078,3.6061,3.6021,3.603,3.6089,3.5989,3.5987,3.6007,3.6126,3.6155,3.6166,3.6059,3.6061,3.6062,3.6128,0,3.6406,3.641,3.6355,3.6374,3.6367,3.6298,3.6301,3.627,3.6235,3.6224,3.6185,3.6174,3.6127,3.6115,3.6121,3.6081,3.6111,3.6075,3.6058,3.6058,3.6069,3.6177,3.6209,3.6274,3.6136,3.6138,3.6139,0,3.65,3.6476,3.6494,3.6438,3.6434,3.6438,3.6408,3.6399,3.6361,3.6335,3.6314,3.6266,3.6265,3.6217,3.6213,3.619,3.6179,3.6158,3.6159,3.6155,3.6103,3.6175,3.6294,3.6303,3.6151,3.615,3.6149,0,3.6607,3.6579,3.6585,3.657,3.6506,3.651,3.6484,3.6443,3.643,3.6404,3.6395,3.637,3.6356,3.6336,3.6282,3.6253,3.6284,3.6232,3.6261,3.6262,3.6271,3.6271,3.6388,3.6266,3.6266,3.6266,3.6266,0,3.6701,3.6714,3.6631,3.6635,3.6646,3.6583,3.6595,3.6562,3.6526,3.652,3.6459,3.6455,3.6384,3.6372,3.633,3.6331,3.6326,3.6304,3.6292,3.6309,3.6312,3.6301,3.6295,3.6268,3.6268,3.6267,3.6267,0,3.6824,3.6769,3.677,3.6709,3.6693,3.6704,3.6651,3.6651,3.661,3.6604,3.6599,3.6536,3.6518,3.6462,3.6431,3.6402,3.6416,3.6394,3.6429,3.6421,3.6452,3.645,3.6566,3.6577,3.6449,3.6451,3.6452,0,3.6887,3.6895,3.6833,3.6825,3.6801,3.6788,3.6774,3.671,3.6697,3.6652,3.6657,3.6633,3.6611,3.6585,3.6536,3.6511,3.6488,3.653,3.6484,3.6499,3.6486,3.6486,3.6486,3.6541,3.6542,3.6544,3.6545,0,3.7005,3.6976,3.6958,3.6929,3.6913,3.6888,3.6858,3.6855,3.6783,3.6772,3.6752,3.6734,3.67,3.6677,3.6643,3.6614,3.6567,3.656,3.6564,3.6582,3.66,3.6589,3.6455,3.6558,3.6556,3.6555,3.6555,3.6554,3.7099,3.7101,3.7057,3.7037,3.7008,3.6981,3.6977,3.6935,3.6917,3.6883,3.6846,3.683,3.6787,3.6737,3.6711,3.6696,3.6671,3.6679,3.6681,3.6684,3.6691,3.6603,3.669,3.669,3.6689,3.6689,3.6689,0,3.7212,3.7179,3.7162,3.7121,3.7105,3.7061,3.7025,3.7014,3.7001,3.6965,3.6943,3.6918,3.6894,3.6842,3.6813,3.6811,3.6788,3.6805,3.6804,3.6798,3.6716,3.6714,3.6823,3.6823,3.6823,3.6823,3.6823,3.6823,3.7269,3.727,3.7236,3.722,3.7186,3.7169,3.7152,3.7126,3.7097,3.7072,3.7051,3.7016,3.6973,3.6939,3.6914,3.6899,3.6891,3.6915,3.6893,3.6817,3.6804,3.6792,3.679,3.6914,3.6914,3.6976,3.6976,3.6977]}]]